OBJECT C, 61896

Orbit data source: Space-Track

You're viewing an Uncataloged Satellite

Recently launched and/or uncataloged satellites may have evolving metadata. Metadata may include but not limited to: Owner, Maufacturer, Bus, Motor, and Mission.

OBJECT C, 61896 is a Chinese satellite in SSO that was launched on Mon, 11 Nov 2024 UTC via a LIJIAN-1 launch vehicle from the Jiuquan Satellite Launch Center, China (JSC). Unknown objects in Earth's orbit typically refer to objects detected orbiting the Earth but have not yet been identified or cataloged. These objects could be anything from previously untracked satellites, spent rocket stages, debris from satellite collisions, or even natural meteoroids temporarily captured by Earth's gravity.

Loading next visibility...
Identifier
61896, 2024-205C
Orbit
SSO
Country
Flag of CNCN / PRC
Related business
None
Manufacturer
Unknown
Mission
Operational Commercial Meteo Radio Occ.
Bus & Motor
Unknown
Mass
Unknown
Launch date (UTC)
2024-11-11 (1 year ago)
Launch vehicle
LIJIAN-1
Launch site
Jiuquan Satellite Launch Center, China (JSC)
Object type
Unknown
Shape & HBR
Box + 1 Pan, 2.5 m
Radar Cross Section
5.339 m², Medium (>0.1 m² and < 1m²)

Expand to show TLE details & history
Last TLE update: 13 hours ago

TLE from 13 hours ago
0 OBJECT C
1 61896U 24205C   26127.32082273  .00007336  00000-0  41951-3 0  9990
2 61896  97.4129 199.3487 0053273 142.2799 218.2186 15.11736345 82058
Epoch: 2026-05-07T07:41Z
TLE epoch observation values (Epoch: 2026-05-07T07:41:59.083Z)
Latitude
-0.00002°
Longitude
-141.31612°
Altitude
562.982 km
Speed
7.564 km/s
True Right ascension
13h 17m 23s
True Declination
0° 00' 00"
Sunlit
Object was in full shadow at epoch
Visualization orbit readout
Latitude
Unknown
Longitude
Unknown
Altitude
Unknown
Speed
Unknown
Apparent Right ascension
Unknown
Apparent Declination
Unknown
Sunlit
N/A
Visualization observer readout
Local Sidereal Time
04:21:02
Azimuth
Unknown
Elevation
Unknown
Doppler factor
Unknown
Orbital elements
Apogee altitude
564.672 km
Perigee altitude
491.091 km
Semi-major axis
6,906.019 km
Eccentricity
0.00533
Inclination
97.4129°
RAAN
199.3487°
Arg. of periapsis
142.2799°
True anomaly
217.8429°
Mean anomaly
218.2186°
Eccentric anomaly
218.03055°
Mean motion
3.78183 °/min
Orbital period
95.19 mins
BSTAR
0.00041951
Loading maneuver chart data...
Computing Atmospheric mass density...
Loading historical data...
Loading historical data...
Loading historical data...
Loading historical data...
Loading historical data...
Loading historical data...
Loading historical data...

Documentation

Showing up to 5 results
|